SCP
0 0 0 0 0 0 1 1 0 0 0 0 0 1 1 1 1 1 2 3 3 2 1 1 1 1 1 1 0 0 0 0 0 0 0 0 0 0 0 0 0 0 0 0 0 0 0 0 0
0 0 0 0 0 0 1 1 0 0 0 0 1 1 1 1 1 1 2 3 2 2 1 1 1 1 1 1 1 0 0 1 1 1 1 1 0 0 0 0 0 0 0 0 0 0 0 0 0
0 0 0 0 0 1 1 0 0 0 0 1 1 2 2 1 1 1 2 2 2 2 1 1 1 1 1 1 1 1 1 1 1 1 1 1 1 1 1 0 0 0 0 0 0 0 0 0 0
0 0 0 0 0 0 0 0 0 1 1 1 2 2 2 2 2 2 2 2 2 2 2 1 1 1 1 1 1 1 1 1 1 1 1 1 1 1 1 1 0 0 0 0 0 0 0 0 0
0 0 0 0 0 0 0 0 1 1 1 2 3 4 3 3 2 2 2 2 2 2 2 1 1 1 2 1 1 1 1 1 1 1 1 1 1 1 1 1 1 1 1 1 1 1 1 0 0
0 0 0 0 0 0 0 0 1 1 2 2 3 4 4 3 2 1 2 1 2 2 2 2 1 1 2 1 1 2 2 2 1 1 1 1 1 1 1 1 1 1 1 1 1 1 1 1 1
0 0 0 0 0 0 0 0 1 1 2 2 3 4 4 3 2 1 1 2 3 3 3 2 1 1 1 1 1 1 2 2 1 1 1 1 1 2 2 2 1 1 1 1 1 1 1 1 1
0 0 0 0 0 0 0 1 1 2 3 3 4 4 4 3 1 1 2 3 4 4 3 2 1 1 1 1 1 1 1 1 1 1 1 1 1 1 2 2 1 1 1 1 1 1 1 1 1
0 0 0 0 0 0 1 1 2 3 5 6 6 5 4 2 1 2 2 3 4 4 3 3 2 2 1 1 1 1 1 1 1 1 2 2 1 1 1 2 2 2 1 1 1 1 1 1 1
0 0 0 0 0 0 1 2 2 4 6 7 7 5 4 3 2 2 3 3 4 4 4 4 4 3 2 2 2 2 2 2 2 2 2 2 2 2 2 2 2 2 1 1 1 1 1 1 1
0 0 0 0 0 1 1 2 2 4 6 7 6 5 4 3 3 3 3 4 4 4 5 5 5 4 3 3 3 2 2 2 3 3 3 3 2 2 3 3 3 2 2 2 2 2 2 2 2
0 0 0 0 0 1 1 1 3 5 7 6 6 5 4 4 4 5 5 5 5 4 5 7 7 6 5 4 4 3 3 4 4 4 4 3 3 3 4 3 3 2 2 2 3 2 2 2 2
0 0 0 0 0 1 1 1 3 6 7 6 5 6 5 6 8 8 6 6 6 6 6 7 8 6 5 5 5 4 4 4 4 4 4 4 4 4 5 5 5 3 2 3 3 3 2 2 2
0 0 0 0 0 1 1 2 3 5 6 6 6 7 7 8 10 9 7 7 7 7 6 6 6 5 5 5 4 3 4 4 4 4 4 5 5 6 7 7 6 4 3 3 3 3 2 2 2
0 0 0 0 1 1 1 2 3 4 5 6 7 8 8 9 9 9 8 8 7 6 6 5 5 5 5 4 3 3 3 3 4 4 4 5 6 6 7 6 5 3 2 2 2 2 2 2 2
0 0 0 1 1 1 1 2 4 4 5 8 8 9 10 9 9 9 8 7 6 6 5 5 5 4 4 3 3 2 2 3 3 3 3 3 4 4 4 3 3 2 2 2 2 2 2 2 2
0 0 0 1 1 1 1 2 3 4 6 7 8 9 10 9 8 7 6 5 5 5 5 5 5 4 3 3 3 2 2 2 2 2 2 2 2 2 2 2 2 2 2 2 2 2 2 2 2
0 0 0 0 1 1 1 2 3 4 5 5 6 7 7 7 6 5 4 4 4 4 5 5 4 3 3 3 2 2 2 2 2 2 2 2 1 1 2 2 2 2 2 2 2 2 2 2 2
0 0 0 0 1 1 1 1 2 3 3 3 4 4 4 4 4 3 3 3 3 4 4 4 3 3 3 3 3 3 2 2 2 2 2 2 2 2 2 2 2 2 2 2 2 2 2 2 1
0 0 0 0 1 1 1 1 2 2 2 2 2 3 3 3 3 2 2 3 3 4 4 4 3 3 3 3 4 4 3 3 2 3 3 3 3 2 2 3 3 2 2 2 2 2 1 1 1
0 0 0 0 1 1 1 1 1 1 2 2 2 2 2 2 2 2 2 2 2 3 3 4 4 4 3 3 4 4 3 3 3 3 3 3 3 3 3 3 3 2 2 2 2 2 1 1 1
0 0 0 0 0 0 0 1 1 1 1 2 2 2 1 1 1 1 1 1 1 2 3 4 5 5 3 3 3 3 3 3 3 3 3 3 3 3 3 3 3 3 2 2 2 1 1 1 1
0 0 0 1 1 0 0 1 1 1 1 1 1 1 1 1 1 1 1 1 1 2 2 4 5 5 3 3 3 2 2 2 2 3 3 3 3 2 2 3 3 3 2 2 1 1 1 1 1
0 0 1 1 1 0 0 1 1 1 1 1 1 1 1 1 1 1 1 1 1 2 2 4 4 4 3 2 2 2 2 2 2 2 2 2 2 2 2 2 3 3 2 2 1 1 1 1 1
0 0 1 1 1 1 0 0 1 1 0 1 1 1 1 1 1 1 1 1 1 2 2 3 4 3 2 2 2 2 2 2 1 1 1 1 1 1 2 2 2 2 1 1 1 1 1 1 1
0 0 0 0 0 1 0 0 0 0 0 0 1 1 1 1 0 0 1 1 1 2 2 3 3 3 3 2 2 2 2 2 1 1 1 1 1 1 1 1 1 1 1 1 1 1 1 1 1
0 0 0 0 0 0 0 0 0 0 0 1 1 1 1 0 0 0 1 1 1 1 2 3 4 3 3 2 3 3 2 2 2 2 2 1 1 1 1 1 1 1 1 1 1 1 1 1 1
0 0 0 0 0 0 0 0 0 0 1 1 1 1 1 1 0 1 1 1 1 2 3 4 4 4 4 3 3 3 3 3 2 2 2 2 1 1 1 1 1 1 1 1 1 0 0 1 1
0 0 0 0 0 0 0 0 0 0 0 0 0 1 1 1 0 1 1 1 2 2 3 4 5 5 5 4 4 4 4 4 3 3 3 2 2 1 1 1 1 1 1 1 0 0 0 0 0
0 0 0 0 0 0 0 0 0 0 0 0 0 0 1 1 1 1 1 2 2 2 3 5 5 5 5 5 5 5 5 5 4 4 4 3 2 2 1 1 1 1 1 1 1 0 0 0 0
Wind_Speed
10 11 10 8 7 5 8 9 6 7 9 9 9 10 17 15 12 11 14 22 25 21 18 17 15 14 12 12 12 12 12 11 11 11 11 11 11 10 10 9 9 9 9 9 9 9 9 9 8
11 13 10 8 8 4 4 7 6 6 6 5 8 11 17 16 16 16 18 22 24 20 17 16 16 14 13 12 12 12 12 12 11 11 11 11 10 10 9 8 8 8 8 8 8 9 9 8 8
13 15 9 9 11 6 5 5 2 3 2 4 8 11 11 12 14 15 19 23 22 19 17 17 17 15 14 13 12 12 12 12 11 11 11 10 9 9 8 8 7 7 7 8 8 8 8 7 7
9 10 9 11 15 8 4 2 3 2 1 4 9 11 10 10 14 18 20 23 22 20 18 17 17 16 14 13 13 12 12 12 11 11 10 10 9 8 8 7 6 6 6 7 7 7 7 6 5
11 9 12 15 17 8 5 4 6 3 2 3 10 13 11 12 18 20 20 22 20 20 18 17 17 16 15 13 12 12 11 11 11 10 9 9 8 8 7 6 6 6 6 6 7 7 6 6 5
9 10 13 14 14 4 4 3 5 4 2 4 11 15 8 12 16 18 19 19 21 21 19 16 17 16 14 13 12 11 11 10 10 9 8 8 7 7 6 6 6 5 6 6 6 6 6 5 4
11 12 16 18 15 9 4 2 3 3 4 2 9 13 11 10 14 17 17 17 20 21 19 15 14 13 13 12 12 11 10 10 9 8 7 7 6 6 6 6 6 5 5 5 5 5 5 5 4
10 11 17 16 15 10 2 2 3 0 4 2 8 11 14 10 13 16 15 17 19 18 17 15 14 13 11 11 11 11 10 9 8 8 7 6 6 7 7 8 7 6 6 6 5 5 5 5 6
10 11 13 13 12 10 6 5 5 1 1 3 9 17 17 13 14 15 15 16 16 16 15 14 14 12 11 11 12 11 10 9 8 7 7 6 5 6 7 7 9 7 7 6 6 6 7 7 9
8 10 12 11 12 12 10 7 7 6 2 8 15 18 19 14 13 13 14 15 15 14 13 12 12 9 8 8 9 7 8 8 6 5 6 4 2 1 2 8 10 9 8 8 8 7 8 8 6
9 10 11 12 11 11 10 8 5 6 4 7 9 15 17 15 12 12 12 12 12 10 11 13 11 7 5 5 6 3 3 5 5 4 4 2 0 1 1 2 4 5 7 5 5 6 5 5 4
8 10 9 10 10 9 9 7 5 6 5 5 7 8 12 13 12 12 12 12 10 8 10 10 11 6 4 4 2 2 2 3 2 3 2 2 0 1 1 1 1 2 2 2 2 2 4 4 3
9 9 8 9 9 7 7 6 3 7 9 7 7 9 11 10 10 11 11 11 9 8 9 9 8 7 5 3 2 2 1 2 2 2 2 2 1 0 0 1 1 2 1 1 1 2 2 3 4
9 9 10 10 9 7 6 4 2 6 10 9 9 9 8 9 10 11 10 10 8 8 9 8 8 7 5 3 2 2 1 2 2 2 2 1 1 0 0 1 1 2 1 1 1 2 2 2 3
10 9 9 9 8 5 4 3 3 3 9 9 8 9 9 12 11 10 8 8 8 8 9 7 7 6 4 3 1 1 0 2 2 2 2 1 1 0 1 2 1 2 2 2 2 2 2 3 4
12 10 8 8 4 5 4 3 5 1 6 9 10 9 10 10 10 10 8 8 9 8 7 5 5 7 5 3 1 0 1 1 2 2 2 2 1 1 1 1 1 1 2 2 2 2 2 2 3
10 8 4 3 3 2 3 1 5 3 3 9 12 11 9 8 10 10 9 9 9 8 7 6 5 5 4 3 2 1 1 1 1 2 3 2 1 1 1 1 0 2 2 1 2 1 1 2 3
9 7 3 2 0 1 4 5 5 5 5 8 12 12 9 8 10 10 10 10 9 7 6 6 6 5 4 3 1 1 1 1 1 2 2 1 0 1 1 2 0 1 1 1 1 2 2 2 3
9 8 5 4 3 1 3 6 6 6 7 8 11 11 11 11 11 10 9 9 9 7 7 6 6 4 2 2 1 1 0 0 0 2 3 2 0 1 2 2 1 2 1 1 2 2 3 3 3
8 6 3 3 2 2 1 4 6 5 6 7 9 11 11 12 10 9 9 9 9 8 7 6 6 5 3 2 1 0 0 2 1 1 2 1 1 1 3 1 3 3 2 3 2 2 2 4 3
7 6 5 2 2 2 1 1 4 4 7 7 8 11 11 11 11 10 9 8 9 8 7 6 5 5 3 2 1 0 0 2 1 0 1 1 0 1 2 2 3 3 3 2 2 2 3 3 3
5 6 6 2 2 1 2 2 4 6 7 8 9 10 11 11 11 10 10 9 9 8 8 6 6 4 3 1 0 2 1 2 2 1 1 1 1 2 2 2 2 2 3 4 4 2 2 3 3
4 5 8 6 4 2 4 3 3 6 8 9 10 10 10 10 11 10 9 8 8 8 8 7 6 5 3 1 1 2 3 3 3 4 3 2 3 3 3 3 1 2 3 4 4 3 3 3 4
3 4 7 6 4 3 7 4 2 5 9 11 11 11 11 11 10 10 9 8 7 7 7 8 7 5 3 1 0 1 2 3 4 4 4 3 3 2 2 1 1 1 2 3 4 4 4 3 4
3 3 2 2 1 6 7 3 4 8 9 10 12 12 12 10 9 9 8 8 7 6 7 7 8 5 3 2 1 1 2 3 5 4 3 4 4 3 4 4 2 2 3 4 4 4 4 5 5
7 5 4 4 2 3 3 4 7 8 9 10 12 12 12 12 10 9 9 8 7 7 7 7 7 5 3 2 1 0 1 3 2 4 4 4 4 3 3 3 3 3 4 5 4 4 5 4 4
7 6 8 6 4 3 1 7 10 9 10 11 12 12 12 12 12 10 10 9 8 7 6 6 6 4 2 1 1 2 2 1 2 3 4 3 3 4 5 5 4 4 5 5 5 4 5 5 5
7 8 6 6 3 1 2 1 6 9 10 12 13 13 12 11 11 11 10 9 8 7 7 6 5 4 3 2 2 1 1 1 2 3 3 3 3 4 4 5 5 5 5 5 5 5 5 5 5
6 6 5 5 5 2 1 2 5 9 9 11 12 12 12 11 10 10 9 9 8 7 8 6 5 4 4 3 2 0 1 2 2 3 4 3 3 3 4 5 5 5 6 5 5 6 6 6 6
9 6 4 4 5 4 1 3 4 6 9 9 10 11 11 10 9 10 10 9 7 7 6 6 5 5 4 3 3 2 1 2 3 4 3 3 4 4 5 5 5 6 6 5 6 6 7 6 6
Wind_Direction
199 218 223 242 244 251 304 312 7 30 57 56 46 62 72 64 80 101 117 111 113 118 123 120 115 115 117 123 129 130 129 128 126 123 120 118 115 112 110 106 102 98 93 89 86 84 83 83 83
216 222 229 242 251 256 284 288 353 24 54 69 71 70 79 76 89 108 111 113 116 122 128 120 116 113 114 116 121 125 127 126 126 124 123 122 120 119 116 112 108 103 99 97 93 90 88 88 87
243 244 254 250 254 245 226 263 28 13 72 86 79 69 69 94 104 111 118 119 117 118 117 119 119 116 114 114 116 120 125 126 126 127 126 125 124 123 121 120 116 112 108 105 103 100 98 95 93
244 235 242 258 272 273 246 322 327 11 56 119 98 86 80 91 112 120 125 119 118 121 121 122 121 119 117 116 117 120 124 126 127 128 129 128 128 130 129 128 127 124 122 118 115 112 111 108 103
241 257 252 264 271 279 315 335 316 354 327 72 94 90 89 101 116 127 126 123 128 123 123 127 125 123 122 121 121 121 123 126 128 131 133 134 136 137 136 135 130 128 129 126 124 123 123 121 118
250 256 266 271 278 272 254 295 324 328 344 84 109 108 94 115 127 133 130 134 129 125 125 127 128 127 127 127 127 128 129 131 135 138 141 142 143 143 143 142 138 133 133 132 134 135 138 141 147
262 280 282 285 288 284 276 331 306 341 305 188 122 114 126 145 140 135 135 132 126 124 128 136 136 134 134 135 137 139 140 143 145 148 151 157 163 166 167 164 161 153 148 148 151 157 160 168 179
266 285 284 283 286 290 319 304 299 48 297 65 120 122 134 148 146 137 137 128 123 126 132 139 141 141 147 148 151 153 155 156 159 161 169 177 186 192 193 186 179 174 168 170 174 181 184 191 202
262 265 276 291 310 319 348 322 317 62 235 53 78 109 128 156 148 140 140 129 125 127 133 142 139 148 157 158 157 164 167 171 174 176 188 199 210 204 201 201 172 186 188 190 194 200 203 207 215
251 266 285 314 321 319 329 319 312 300 41 78 90 112 133 154 147 147 141 131 125 126 135 134 137 148 160 152 150 173 174 170 189 174 178 201 234 251 173 163 172 186 201 206 208 212 215 219 221
266 280 303 311 315 315 315 312 302 297 39 81 107 129 138 141 142 138 130 121 117 126 125 126 123 132 136 124 157 162 153 155 180 158 166 161 285 317 43 158 174 195 210 216 200 209 228 227 225
268 285 295 299 306 307 301 299 317 48 63 84 98 125 130 141 142 135 125 121 125 129 115 118 120 123 93 88 112 130 124 142 136 135 142 110 96 6 3 333 256 212 213 203 192 204 236 257 268
276 277 285 287 288 291 296 305 324 92 104 108 133 151 140 136 132 120 114 113 125 118 110 103 108 103 92 77 25 66 74 89 101 111 111 110 163 130 334 301 310 298 287 255 229 233 256 271 280
310 318 316 309 307 300 296 291 298 117 124 132 149 137 127 109 102 102 110 116 126 124 108 105 107 109 108 101 65 14 21 82 77 93 111 136 135 111 268 276 277 286 286 255 238 254 256 264 263
302 297 300 296 304 303 339 329 333 121 122 136 131 120 113 104 102 109 119 126 124 118 112 116 121 115 108 101 90 103 148 110 118 125 125 104 97 121 284 263 250 256 254 241 224 243 253 251 253
296 282 283 300 312 326 21 332 307 239 123 129 120 107 100 103 112 119 123 123 122 120 117 120 117 114 116 112 125 143 85 114 135 125 113 94 93 123 269 265 230 240 248 236 226 215 247 272 276
272 272 269 327 329 345 72 238 268 297 144 134 118 113 109 116 118 122 126 114 114 118 119 117 106 117 131 134 149 151 121 115 128 106 98 88 25 12 306 287 280 268 277 278 291 76 269 273 269
316 335 7 329 348 62 113 174 207 198 178 139 124 125 128 134 119 117 114 110 111 118 123 125 121 126 141 135 157 146 119 155 132 109 115 125 259 359 327 265 261 304 288 276 317 308 277 264 256
324 346 4 344 323 314 134 160 175 176 175 144 132 135 141 133 124 122 120 122 127 136 139 140 135 135 141 128 143 117 93 312 194 157 153 148 189 351 301 320 339 276 284 310 302 304 295 281 263
310 331 312 261 239 264 164 149 159 180 153 128 136 142 139 132 130 133 136 143 149 148 145 144 152 156 159 121 105 124 354 292 280 68 118 137 170 291 285 326 303 312 321 289 272 268 283 294 300
305 319 307 311 85 63 9 121 148 168 141 141 157 151 148 148 148 152 156 156 156 154 158 155 146 137 136 131 197 300 217 271 308 355 144 134 298 274 302 308 299 321 311 301 309 279 267 276 295
306 325 330 21 74 274 234 238 177 175 163 170 176 159 156 157 157 161 162 162 161 158 153 139 138 133 128 138 359 329 308 320 340 350 31 27 301 282 273 268 284 307 306 310 297 311 313 289 288
331 360 4 22 52 312 227 217 175 188 184 180 173 165 163 163 159 162 157 155 157 157 150 146 138 134 132 135 53 336 338 348 358 2 354 333 292 267 257 242 238 289 289 304 316 323 305 299 292
327 12 13 16 31 287 238 210 150 200 200 178 167 167 167 162 162 158 155 153 152 151 146 140 136 138 138 145 88 27 351 346 330 322 313 319 308 292 299 309 66 302 305 317 310 304 291 281 290
265 288 315 326 271 242 218 172 158 186 187 175 167 168 164 164 161 159 158 154 154 154 142 136 139 146 154 161 132 42 356 314 289 294 323 338 322 329 29 23 20 336 319 302 293 291 284 283 281
247 250 257 283 253 223 187 139 141 158 156 162 160 162 164 164 167 168 161 158 158 156 148 141 140 145 153 163 137 239 281 286 325 14 348 322 313 329 357 345 323 303 297 295 306 303 290 280 279
279 286 298 299 320 334 96 118 128 148 149 156 161 167 170 170 169 167 159 159 159 154 142 137 134 140 154 164 163 224 227 282 327 323 291 304 336 319 347 341 319 303 293 288 289 277 281 284 278
263 295 304 308 322 54 8 107 151 163 166 169 171 174 176 174 172 164 159 162 155 148 141 141 138 150 170 210 229 259 53 310 294 293 308 303 298 301 303 297 298 296 291 282 276 276 275 279 275
248 257 291 312 325 352 113 271 161 170 178 177 178 179 180 179 173 162 159 155 152 154 151 151 154 167 182 196 181 227 263 294 300 286 279 284 291 296 290 287 286 285 281 277 273 272 271 269 269
290 269 261 280 302 296 310 128 147 177 177 175 181 177 178 177 170 161 155 150 156 161 158 160 169 182 187 182 174 199 219 262 275 283 297 302 290 282 278 278 280 280 280 280 278 277 280 278 275